Location: ????????
(55.8988°N, 38.1883°E)
Time: 13:13:52
(UTC+00:00)

Daily predictions for brighter satellites

Satellite Brightness Start Highest point End
(mag) Time Altitude Azimuth Time Altitude Azimuth Time Altitude Azimuth
BREEZE-M DEB (TANK) 4.4 19:10:04 10° SW 19:14:33 45° SE 19:30:41 10° E
Cosmos 1758 3.8 19:17:15 10° NNW 19:21:05 56° W 19:24:55 10° S
Genesis I 4.0 19:17:41 10° WSW 19:21:09 51° NNW 19:24:41 10° NE
Cosmos 1741 Rocket 4.3 19:17:27 10° S 19:22:34 54° ESE 19:27:45 10° NE
Cosmos 1242 Rocket 4.3 19:22:02 10° ESE 19:22:56 11° E 19:23:50 10° ENE
ALOS 2 4.3 19:19:27 10° ESE 19:22:57 24° ENE 19:26:28 10° N
Cosmos 2322 Rocket 2.8 19:19:12 10° NW 19:24:40 50° WSW 19:30:08 10° S
COSMOS 2406 4.0 19:19:56 10° SW 19:25:36 57° NW 19:31:18 10° NNE
Cosmos 968 Rocket 3.9 19:21:14 10° S 19:26:04 44° ESE 19:31:00 10° NE
Cosmos 1814 Rocket 4.1 19:21:15 10° NNW 19:26:34 82° WSW 19:31:53 10° SSE
USA 234 3.3 19:27:19 10° ENE 19:33:51 65° SSE 19:40:21 10° SW
Cosmos 1356 Rocket 3.4 19:31:52 10° SSW 19:36:04 86° E 19:40:18 10° NNE
Kosmos-1783 4.1 19:33:51 10° WNW 19:36:58 67° SW 19:43:14 10° SE
Meteor 1-21 4.3 19:32:30 10° S 19:38:17 78° E 19:44:08 10° NNE
Cosmos 1862 Rocket 3.6 19:35:29 10° S 19:39:52 81° E 19:44:20 10° NNE
COSMOS 2428 3.0 19:39:57 10° NNW 19:45:39 68° NE 19:51:20 10° SE
Okean 2 3.7 19:43:43 10° S 19:47:35 49° E 19:51:29 10° NNE
Cosmos 2219 Rocket 2.4 19:46:37 10° NW 19:52:15 68° WSW 19:57:45 11° SSE
Cosmos 1455 1.9 19:49:03 10° N 19:52:34 84° ENE 19:55:51 12° SSE
Cosmos 1400 Rocket 4.1 19:50:03 10° SW 19:53:43 38° WNW 19:57:20 10° N
SL-4 R/B 2.3 19:51:03 10° WSW 19:54:50 46° S 19:58:51 10° ESE
Landsat 5 3.8 19:52:11 10° N 19:56:07 64° WNW 20:00:08 10° SSW
Cosmos 1707 Rocket 4.2 19:56:22 10° SSW 20:00:46 58° WNW 20:05:11 10° N
Orbus 7S? 2.9 19:57:59 10° W 20:01:38 77° N 20:04:18 10° E
ATLAS CENTAUR R/B 1.1 20:02:34 10° SSW 20:06:00 54° SE 20:09:35 10° NE
ARIANE 5 R/B 2.7 20:01:59 11° S 20:06:07 72° WSW 20:10:28 10° NNW
SJ 16-02 1.3 20:03:29 10° SSW 20:07:46 69° ESE 20:12:06 10° NNE
Cosmos 1315 Rocket 2.8 20:04:45 10° S 20:08:43 75° ESE 20:12:44 10° NNE
Cosmos 1953 2.5 20:05:02 10° NNW 20:08:50 61° W 20:12:24 11° S
Okean 3 3.8 20:06:28 10° SSW 20:10:35 64° WNW 20:14:45 10° N
Nadezhda 1 Rocket 4.1 20:04:39 10° N 20:11:03 81° ENE 20:16:57 12° SSE
Meteor 1-4 Rocket 2.3 20:09:56 10° SSW 20:12:55 70° WNW 20:15:56 10° N
SL-27 R/B 2.4 20:11:32 10° SW 20:14:16 58° WNW 20:17:04 10° NNE
Aureole 3 4.1 20:10:33 10° SSW 20:14:31 62° WNW 20:19:32 10° N
Cosmos 2360 Rocket 3.5 20:10:40 10° NW 20:15:31 30° WSW 20:20:20 10° SSW
ATLAS 2AS CENTAUR R/B 3.6 20:12:28 10° WNW 20:18:29 34° WSW 20:24:07 11° S
GP-B 3.2 20:18:31 10° N 20:22:58 80° W 20:27:09 11° S
SL-16 R/B 4.4 20:20:55 10° WNW 20:23:53 15° W 20:26:50 10° SW
Cosmos 2333 Rocket 3.6 20:19:05 10° NW 20:23:55 28° WSW 20:28:44 10° SSW
H-2A R/B 2.6 20:23:15 13° S 20:27:04 75° WSW 20:31:21 10° NNW
Cosmos 1908 Rocket 4.2 20:25:50 10° NNW 20:30:02 47° W 20:34:00 11° SSW
Cosmos 1782 Rocket 3.6 20:28:20 10° NNW 20:32:40 76° W 20:36:24 14° S
SL-16 R/B 3.6 20:35:41 10° NNW 20:40:58 36° NE 20:46:13 10° ESE
Okean 1-7 3.7 20:37:24 10° SSW 20:41:38 53° WNW 20:45:54 10° N
Cosmos 1825 4.4 20:41:28 10° ESE 20:42:47 12° E 20:44:07 10° ENE
Cosmos 1833 4.3 20:37:27 10° SW 20:43:06 79° NW 20:48:47 10° NNE
USA 129 2.8 20:44:43 10° NE 20:45:39 15° ENE 20:45:39 15° ENE
USA 281 4.1 20:42:02 11° S 20:47:51 39° WSW 20:53:59 10° NW
Cosmos 2322 4.3 20:44:11 10° NW 20:49:36 46° WSW 20:54:15 14° S
Cosmos 2237 Rocket 2.3 20:43:55 10° NNW 20:49:38 80° NE 20:55:18 10° SE
Cosmos 2151 Rocket 4.4 20:46:43 10° N 20:50:59 44° ENE 20:55:00 11° SE
BlueWalker 3 3.5 20:50:10 16° SSE 20:51:14 17° SE 20:53:46 10° E
MINOTAUR 4 R/B 4.3 20:48:35 10° N 20:51:27 49° WNW 20:54:11 11° SW
Cosmos 405 Rocket 3.2 20:48:47 10° N 20:52:27 52° ENE 20:55:40 13° SSE
Meteor 1-24 Rocket 4.3 20:47:52 13° SSE 20:52:44 46° E 20:58:05 10° NNE
Cosmos 1408 2.1 20:50:38 17° S 20:52:45 65° E 20:55:43 10° NNE
Cosmos 1300 Rocket 3.8 20:49:09 10° NNW 20:53:23 58° W 20:56:57 14° S
Cosmos 1242 Rocket 2.5 20:52:09 12° SSW 20:54:34 50° WNW 20:57:18 10° N
H-2A R/B 3.3 20:51:43 10° NE 20:55:27 28° E 20:58:34 13° SSE
EXPRESS MD2 3.8 20:56:03 10° SW 20:56:56 16° SSW 20:56:56 16° SSW
Okean 2 Rocket 3.8 20:53:45 10° N 20:58:05 47° ENE 21:02:11 11° SE
ALOS 2 2.8 20:55:20 15° S 20:58:58 63° WSW 21:03:21 10° NNW
CZ-4C R/B 3.1 20:57:21 14° SSE 21:00:25 26° ESE 21:05:04 10° ENE
Cosmos 2227 Rocket 3.9 20:57:02 10° SE 21:00:46 18° E 21:04:31 10° ENE
Cosmos 1980 3.7 20:56:47 10° NW 21:02:30 84° WSW 21:07:57 11° SSE
Cosmos 371 Rocket 3.9 20:59:56 15° S 21:03:36 41° ESE 21:08:09 10° NE
Cosmos 1709 Rocket 4.1 21:00:29 13° S 21:06:18 82° E 21:12:41 10° NNE
NOSS 0 Rocket 4.2 21:03:19 10° NW 21:09:25 56° WSW 21:14:47 13° SSE
Cosmos 1703 3.2 21:10:09 16° S 21:12:58 69° E 21:16:40 10° NNE
USA 234 3.4 21:10:31 10° ENE 21:17:06 84° N 21:23:40 10° W
Cosmos 1378 Rocket 4.3 21:14:45 14° SSE 21:18:09 43° E 21:22:20 10° NNE
Sich 1 Rocket 3.7 21:15:43 10° N 21:20:09 72° ENE 21:23:55 14° SSE
Meteor 2-5 Rocket 3.9 21:15:20 14° S 21:20:28 70° E 21:26:17 10° NNE
Cosmos 2297 Rocket 2.9 21:16:08 14° S 21:20:31 40° ESE 21:25:46 10° NE
Cosmos 2242 Rocket 3.8 21:20:05 13° SSW 21:24:05 73° WNW 21:28:42 10° N
Cosmos 773 Rocket 4.3 21:21:16 10° NW 21:26:16 54° WSW 21:30:29 15° S
BREEZE-M DEB (TANK) 3.5 21:17:55 10° W 21:27:16 42° SSW 21:30:30 10° SE
COSMOS 2428 3.8 21:24:37 10° NW 21:29:32 31° WSW 21:33:46 13° SSW
CENTAUR R/B 4.1 21:25:39 11° SSE 21:29:42 20° ESE 21:34:31 10° ENE
SL-4 R/B 2.9 21:29:36 10° W 21:33:09 29° SSW 21:36:52 10° SE
Cosmos 2098 Rocket 4.3 21:27:38 10° NNW 21:34:06 68° W 21:39:49 14° S
COSMOS 2455 3.0 21:29:10 12° SSW 21:34:39 59° ESE 21:40:35 10° NE
Cosmos 2219 Rocket 4.2 21:32:02 10° WNW 21:35:12 15° W 21:38:21 10° SW
Cosmos 1892 3.2 21:32:49 15° SSE 21:35:23 43° E 21:38:45 10° NNE
Cosmos 1538 Rocket 4.4 21:31:35 10° NNW 21:36:46 64° ENE 21:41:57 10° SE
Cosmos 1503 Rocket 4.2 21:35:27 14° S 21:39:57 62° ESE 21:45:11 10° NNE
NOSS 8 (F) 4.4 21:37:17 12° SW 21:40:26 56° SE 21:43:23 10° ENE
Cosmos 1777 Rocket 4.3 21:38:28 14° S 21:42:49 56° ESE 21:48:00 10° NE
ATLAS CENTAUR R/B 2.7 21:40:30 10° W 21:43:49 35° NNW 21:47:17 10° NE
GENESIS II 4.0 21:41:30 10° SW 21:45:09 89° SSE 21:48:50 10° NE
SJ 16-02 3.5 21:43:02 10° W 21:46:34 24° NW 21:50:08 10° N
PSLV R/B 3.7 21:47:34 10° NNE 21:51:50 69° WNW 21:55:30 13° SSW
Cosmos 332 Rocket 4.4 21:52:44 14° S 21:56:39 47° ESE 22:01:21 10° NE
Cosmos 2263 Rocket 4.0 21:52:56 10° SE 21:56:46 19° E 22:00:36 10° ENE
Cosmos 304 Rocket 3.7 21:52:46 13° SSW 21:57:01 87° ESE 22:01:49 10° NNE
Cosmos 2181 Rocket 4.3 21:53:23 10° NNW 21:59:27 55° W 22:04:45 13° SSW
Resurs 1-4 Rocket 4.4 21:57:08 10° NE 22:00:02 15° E 22:02:55 10° ESE
Okean 1 Rocket 3.1 21:57:57 10° NNW 22:02:18 73° W 22:06:00 14° S
Cosmos 1486 Rocket 4.3 22:01:51 10° SW 22:07:00 64° WNW 22:12:13 10° NNE
Helios 1A Rocket 2.9 22:11:19 10° SSE 22:15:06 73° ENE 22:18:55 10° NNW
Cosmos 1825 1.9 22:13:44 15° SSW 22:16:26 75° WNW 22:19:53 10° N
Cosmos 2074 Rocket 4.0 22:14:24 13° SSW 22:20:03 84° WNW 22:26:19 10° N
Cosmos 1354 Rocket 4.1 22:15:41 12° SSW 22:20:36 89° W 22:25:57 10° NNE
Cosmos 1606 3.9 22:18:55 10° N 22:22:14 35° ENE 22:25:33 10° SE
SL-16 R/B 2.2 22:19:50 10° NW 22:25:31 69° WSW 22:31:10 10° SSE
BREEZE-M DEB (TANK) 2.5 22:25:29 10° WSW 22:27:09 19° SSW 22:27:41 17° S
BlueWalker 3 2.2 22:25:12 10° SW 22:28:46 43° SSE 22:32:21 10° E
H-2A R/B 2.8 22:27:12 10° N 22:31:20 46° WNW 22:35:22 10° SW
Cosmos 1975 Rocket 3.8 22:28:29 10° SSE 22:32:39 46° E 22:36:52 10° NNE
Cosmos 2237 Rocket 3.5 22:28:36 10° NW 22:33:09 25° WSW 22:37:15 12° SSW
Okean 2 Rocket 4.4 22:32:09 10° NNW 22:35:54 27° W 22:39:28 11° SW
SL-19 R/B 4.1 22:36:34 10° NNE 22:39:45 55° ESE 22:42:13 13° S
Cosmos 1455 Rocket 3.2 22:36:31 10° NNW 22:40:57 69° W 22:45:15 11° S
Cosmos 1943 3.6 22:36:05 10° NNW 22:41:43 67° NE 22:47:19 10° SE
Cosmos 1818 3.6 22:37:26 10° NW 22:42:57 79° SW 22:48:25 10° SE
Cosmos 1328 3.9 22:39:39 13° SSW 22:43:04 64° WNW 22:46:57 10° N
Cosmos 371 Rocket 4.3 22:39:25 10° WSW 22:43:58 41° NW 22:48:34 10° NNE
Cosmos 2227 Rocket 2.3 22:38:36 12° SSW 22:43:58 79° ESE 22:49:40 10° NE
Orbus 7S? 2.8 22:42:09 10° WNW 22:44:45 47° SSW 22:47:58 10° SE
Meteor 1-21 Rocket 4.3 22:42:07 11° S 22:47:40 83° ESE 22:53:22 10° NNE
Cosmos 1680 Rocket 3.7 22:42:33 10° NNW 22:47:48 79° ENE 22:53:00 10° SSE
CZ-4C R/B 2.2 22:43:08 10° SW 22:48:02 84° NW 22:54:22 10° NE
Cosmos 1869 3.4 22:45:35 10° N 22:49:18 67° ENE 22:52:59 10° SSE
Cosmos 2112 Rocket 4.3 22:44:11 10° NNW 22:49:24 72° ENE 22:54:34 10° SE
Nadezhda 3 Rocket 4.4 22:43:59 10° NNW 22:50:01 50° W 22:55:52 10° SSW
NOSS 3-3 (A) 4.5 22:45:40 10° NW 22:52:47 77° SW 23:01:12 10° SE
MOZ.5/SAFIR/RUBIN 5/SL-8 3.8 22:49:47 10° SSE 22:54:26 76° WSW 22:59:05 10° NNW
CZ-2C R/B 3.0 22:50:04 10° SSE 22:55:18 67° ENE 23:00:42 10° NNW
Cosmos 2084 Rocket 3.4 22:51:59 10° SW 22:56:12 68° SE 23:00:16 10° ENE
CZ-2D R/B 3.4 22:52:01 10° NNE 22:56:55 34° E 23:01:43 10° SSE
IDEFIX/ARIANE 42P 3.4 22:52:25 10° NNE 22:57:28 45° E 23:02:29 10° S
Cosmos 2218 Rocket 4.5 22:53:38 10° S 22:59:43 57° E 23:05:46 10° NNE
GEOS 3 Rocket 3.7 22:54:54 10° NE 23:00:08 85° NW 23:05:17 10° SW
USA 234 3.3 22:53:34 10° E 23:00:10 88° NNE 23:06:45 10° WNW
Cosmos 2297 Rocket 2.8 22:58:56 10° SW 23:04:28 54° NW 23:10:03 10° NNE
Cosmos 2219 3.4 22:59:15 11° SSW 23:04:44 68° ESE 23:10:19 10° NE
Cosmos 1025 Rocket 3.5 23:01:49 11° SSW 23:05:57 53° WNW 23:10:12 10° N
Cosmos 2366 rocket 4.3 23:02:19 10° S 23:08:31 67° E 23:14:43 10° NNE
Cosmos 1892 4.4 23:07:28 10° WSW 23:10:12 21° WNW 23:12:57 10° NNW
NPP 4.2 23:04:56 10° NNE 23:10:15 54° E 23:15:32 10° S
Cosmos 1607 4.4 23:03:52 10° NW 23:10:21 71° NE 23:16:43 10° ESE
SL-4 R/B 4.0 23:09:57 10° WSW 23:11:01 11° SW 23:12:04 10° SSW
Meteor 2-1 Rocket 4.5 23:05:35 10° NNW 23:11:28 65° W 23:17:14 10° S
NOSS 3 (A) 3.3 23:12:25 11° WSW 23:13:50 61° NW 23:15:31 10° NE
Cosmos 990 Rocket 4.1 23:08:45 10° SSW 23:13:53 76° WNW 23:19:03 10° NNE
CENTAUR R/B 2.7 23:13:01 10° SW 23:18:58 71° SE 23:26:26 10° NE
ALOS 4.3 23:16:41 10° NE 23:20:17 22° E 23:23:51 10° SE
COSMOS 2455 3.7 23:14:57 10° WSW 23:20:48 49° NNW 23:26:41 10° NE
ATLAS CENTAUR R/B 3.8 23:19:27 10° NW 23:22:21 21° N 23:25:22 10° NE
Aureole 1 Rocket 2.9 23:18:45 10° SSW 23:22:23 87° ESE 23:27:05 10° NNE
SL-16 R/B 3.0 23:18:17 10° SE 23:24:27 66° ENE 23:30:38 10° NNW
ADEOS II 3.1 23:25:45 10° NNE 23:30:45 42° E 23:35:43 10° S
COBE Rocket 4.1 23:28:15 10° NNE 23:33:24 77° WNW 23:38:34 10° SSW
Cosmos 292 Rocket 3.8 23:29:28 10° SSW 23:34:16 81° WNW 23:39:08 10° NNE
Meteor 1-27 4.4 23:31:51 10° NNW 23:37:44 85° WSW 23:43:32 10° S
Cosmos 2263 Rocket 2.3 23:34:19 10° SSW 23:39:54 83° ESE 23:45:31 10° NE
Resurs 1-4 Rocket 2.3 23:35:30 10° NNE 23:40:48 71° ESE 23:46:05 10° S
MSX 4.0 23:35:04 10° NNE 23:40:50 78° ESE 23:46:34 10° SSW
SL-8 Rocket 4.1 23:34:42 10° SSW 23:40:51 73° WNW 23:47:05 10° N
